| time (UTC) | temp F | wind direction | speed knots | gust knots | rain 1hr in | rain 24hr in | rain mn in | humidity % | barometer mb |
| 20260502231044 | 48 | 0 | 1.7 | 6.1 | 0.00 | 0.01 | 0.01 | 51 | 1014.7 |
| 20260502230938 | 48 | 280 | 1.7 | 6.1 | 0.00 | 0.01 | 0.01 | 50 | 1014.7 |
| 20260502230833 | 48 | 281 | 1.7 | 6.1 | 0.00 | 0.01 | 0.01 | 50 | 1014.7 |
| 20260502230505 | 48 | 292 | 1.7 | 6.1 | 0.00 | 0.01 | 0.01 | 50 | 1014.8 |
| 20260502230401 | 48 | 292 | 1.7 | 6.1 | 0.00 | 0.01 | 0.01 | 49 | 1014.8 |
| 20260502230257 | 48 | 273 | 1.7 | 6.1 | 0.00 | 0.01 | 0.01 | 50 | 1014.9 |
| 20260502230155 | 48 | 309 | 1.7 | 6.1 | 0.00 | 0.01 | 0.01 | 50 | 1014.8 |
| 20260502230046 | 48 | 313 | 1.7 | 6.1 | 0.00 | 0.01 | 0.01 | 49 | 1014.8 |
| 20260502225241 | 47 | 287 | 0.9 | 5.2 | 0.00 | 0.01 | 0.01 | 52 | 1014.8 |
| 20260502225134 | 47 | 286 | 1.7 | 5.2 | 0.00 | 0.01 | 0.01 | 51 | 1014.9 |
| 20260502225031 | 47 | 294 | 1.7 | 5.2 | 0.00 | 0.01 | 0.01 | 50 | 1014.8 |
| 20260502224928 | 47 | 292 | 1.7 | 5.2 | 0.00 | 0.01 | 0.01 | 52 | 1014.8 |
| 20260502224821 | 47 | 343 | 1.7 | 5.2 | 0.00 | 0.01 | 0.01 | 51 | 1014.9 |
| 20260502224713 | 47 | 300 | 1.7 | 5.2 | 0.00 | 0.01 | 0.01 | 51 | 1014.9 |
| 20260502224610 | 47 | 300 | 1.7 | 5.2 | 0.00 | 0.01 | 0.01 | 50 | 1014.9 |
| 20260502224508 | 47 | 300 | 1.7 | 5.2 | 0.00 | 0.01 | 0.01 | 50 | 1014.8 |
| 20260502224402 | 47 | 300 | 1.7 | 5.2 | 0.00 | 0.01 | 0.01 | 50 | 1014.9 |
| 20260502224255 | 47 | 300 | 1.7 | 5.2 | 0.00 | 0.01 | 0.01 | 50 | 1014.9 |
| 20260502224148 | 47 | 256 | 1.7 | 5.2 | 0.00 | 0.01 | 0.01 | 49 | 1014.9 |
| 20260502224041 | 47 | 291 | 0.9 | 5.2 | 0.00 | 0.01 | 0.01 | 50 | 1014.9 |
| 20260502223936 | 47 | 292 | 0.9 | 5.2 | 0.00 | 0.01 | 0.01 | 51 | 1014.9 |
| 20260502223829 | 47 | 290 | 0.9 | 5.2 | 0.00 | 0.01 | 0.01 | 51 | 1014.9 |
| 20260502223245 | 47 | 279 | 1.7 | 7.8 | 0.00 | 0.01 | 0.01 | 50 | 1014.9 |
| 20260502223140 | 47 | 295 | 2.6 | 7.8 | 0.00 | 0.01 | 0.01 | 49 | 1014.9 |
| 20260502223038 | 47 | 294 | 2.6 | 7.8 | 0.00 | 0.01 | 0.01 | 51 | 1014.9 |
| 20260502222714 | 47 | 306 | 2.6 | 7.8 | 0.00 | 0.01 | 0.01 | 49 | 1014.9 |
| 20260502222129 | 48 | 298 | 2.6 | 7.8 | 0.00 | 0.01 | 0.01 | 50 | 1014.9 |
| 20260502222021 | 48 | 267 | 2.6 | 7.8 | 0.00 | 0.02 | 0.01 | 50 | 1014.9 |
| 20260502221656 | 48 | 271 | 1.7 | 7.8 | 0.00 | 0.02 | 0.01 | 49 | 1014.9 |
| 20260502221550 | 48 | 276 | 0.9 | 7.8 | 0.00 | 0.02 | 0.01 | 50 | 1014.9 |
| 20260502221443 | 48 | 280 | 0.9 | 7.8 | 0.00 | 0.02 | 0.01 | 51 | 1014.9 |
| 20260502221337 | 47 | 284 | 0.9 | 7.8 | 0.00 | 0.02 | 0.01 | 52 | 1014.9 |
| 20260502221234 | 47 | 280 | 0.9 | 7.8 | 0.00 | 0.02 | 0.01 | 52 | 1014.9 |
| 20260502221129 | 47 | 287 | 0.9 | 7.8 | 0.00 | 0.02 | 0.01 | 50 | 1014.9 |
| 20260502221027 | 47 | 287 | 1.7 | 7.8 | 0.00 | 0.02 | 0.01 | 52 | 1014.9 |
| 20260502220924 | 47 | 296 | 1.7 | 7.8 | 0.00 | 0.02 | 0.01 | 51 | 1014.9 |
| 20260502220822 | 47 | 252 | 1.7 | 7.8 | 0.00 | 0.02 | 0.01 | 51 | 1014.9 |
| 20260502220718 | 47 | 220 | 1.7 | 8.7 | 0.00 | 0.02 | 0.01 | 52 | 1014.9 |
| 20260502220354 | 47 | 286 | 0.9 | 8.7 | 0.00 | 0.02 | 0.01 | 51 | 1014.9 |
| 20260502215811 | 47 | 304 | 1.7 | 8.7 | 0.00 | 0.02 | 0.01 | 51 | 1014.8 |
| 20260502215709 | 47 | 303 | 2.6 | 0.0 | 0.00 | 0.02 | 0.01 | 50 | 1014.8 |
| 20260502215606 | 47 | 303 | 3.5 | 8.7 | 0.00 | 0.02 | 0.01 | 50 | 1014.8 |
| 20260502215504 | 47 | 304 | 3.5 | 8.7 | 0.00 | 0.02 | 0.01 | 50 | 1014.8 |
| 20260502215358 | 47 | 305 | 3.5 | 8.7 | 0.00 | 0.02 | 0.01 | 49 | 1014.8 |
| 20260502215252 | 47 | 292 | 3.5 | 8.7 | 0.00 | 0.02 | 0.01 | 48 | 1014.8 |
| 20260502215145 | 48 | 273 | 3.5 | 8.7 | 0.00 | 0.02 | 0.01 | 49 | 1014.8 |
| 20260502215043 | 48 | 296 | 3.5 | 8.7 | 0.00 | 0.02 | 0.01 | 50 | 1014.8 |
| 20260502214941 | 47 | 280 | 3.5 | 8.7 | 0.00 | 0.02 | 0.01 | 49 | 1014.8 |
| 20260502214835 | 48 | 284 | 2.6 | 8.7 | 0.00 | 0.02 | 0.01 | 51 | 1014.8 |
| 20260502214732 | 47 | 346 | 2.6 | 6.1 | 0.00 | 0.02 | 0.01 | 50 | 1014.8 |
| 20260502214629 | 47 | 298 | 2.6 | 6.1 | 0.00 | 0.02 | 0.01 | 51 | 1014.8 |
| 20260502214301 | 47 | 295 | 1.7 | 6.1 | 0.00 | 0.02 | 0.01 | 50 | 1014.9 |
| 20260502214158 | 47 | 259 | 1.7 | 6.1 | 0.00 | 0.02 | 0.01 | 48 | 1014.9 |
| 20260502214052 | 47 | 292 | 1.7 | 6.1 | 0.00 | 0.02 | 0.01 | 48 | 1014.9 |
| 20260502213948 | 47 | 290 | 1.7 | 6.1 | 0.00 | 0.02 | 0.01 | 49 | 1014.8 |
| 20260502213845 | 47 | 331 | 0.9 | 5.2 | 0.00 | 0.02 | 0.01 | 51 | 1014.8 |
| 20260502213520 | 47 | 269 | 0.9 | 7.8 | 0.00 | 0.02 | 0.01 | 50 | 1014.9 |
| 20260502213154 | 47 | 315 | 1.7 | 7.8 | 0.00 | 0.02 | 0.01 | 50 | 1014.9 |
| 20260502213051 | 47 | 325 | 1.7 | 7.8 | 0.00 | 0.02 | 0.01 | 49 | 1014.9 |
| 20260502212729 | 47 | 334 | 3.5 | 10.4 | 0.00 | 0.02 | 0.01 | 50 | 1014.9 |
| 20260502212622 | 47 | 285 | 3.5 | 10.4 | 0.00 | 0.02 | 0.01 | 48 | 1014.9 |
| 20260502212517 | 47 | 264 | 4.3 | 10.4 | 0.00 | 0.02 | 0.01 | 48 | 1014.9 |
| 20260502212410 | 47 | 256 | 3.5 | 10.4 | 0.00 | 0.02 | 0.01 | 49 | 1014.9 |
| 20260502212305 | 47 | 292 | 4.3 | 10.4 | 0.00 | 0.02 | 0.01 | 50 | 1014.9 |
| 20260502212156 | 47 | 313 | 4.3 | 10.4 | 0.00 | 0.02 | 0.01 | 48 | 1015.0 |
| 20260502212051 | 47 | 290 | 4.3 | 10.4 | 0.00 | 0.02 | 0.01 | 47 | 1014.9 |
| 20260502211945 | 47 | 269 | 4.3 | 10.4 | 0.00 | 0.02 | 0.01 | 47 | 1015.0 |
| 20260502211839 | 47 | 273 | 4.3 | 10.4 | 0.00 | 0.02 | 0.01 | 47 | 1015.0 |
| 20260502211737 | 47 | 283 | 3.5 | 10.4 | 0.00 | 0.02 | 0.01 | 48 | 1015.0 |
| 20260502211630 | 47 | 282 | 3.5 | 10.4 | 0.00 | 0.02 | 0.01 | 50 | 1015.0 |
| 20260502211526 | 47 | 283 | 3.5 | 10.4 | 0.00 | 0.02 | 0.01 | 50 | 1015.0 |
| 20260502211422 | 47 | 267 | 3.5 | 10.4 | 0.00 | 0.02 | 0.01 | 49 | 1015.0 |
| 20260502211316 | 47 | 281 | 3.5 | 10.4 | 0.00 | 0.02 | 0.01 | 48 | 1015.0 |
| 20260502211212 | 47 | 286 | 3.5 | 10.4 | 0.00 | 0.02 | 0.01 | 48 | 1015.0 |
| 20260502211106 | 47 | 263 | 3.5 | 10.4 | 0.00 | 0.02 | 0.01 | 49 | 1015.0 |
| 20260502211000 | 47 | 305 | 3.5 | 10.4 | 0.00 | 0.02 | 0.01 | 49 | 1015.0 |
| 20260502210416 | 47 | 243 | 3.5 | 10.4 | 0.00 | 0.02 | 0.01 | 50 | 1015.0 |
| 20260502210313 | 47 | 317 | 3.5 | 10.4 | 0.00 | 0.02 | 0.01 | 49 | 1015.1 |
| 20260502210210 | 47 | 345 | 3.5 | 10.4 | 0.00 | 0.02 | 0.01 | 49 | 1015.0 |
| 20260502210105 | 47 | 271 | 4.3 | 10.4 | 0.00 | 0.02 | 0.01 | 48 | 1015.0 |
| 20260502205740 | 48 | 290 | 4.3 | 10.4 | 0.00 | 0.02 | 0.01 | 48 | 1015.1 |
| 20260502205637 | 48 | 267 | 3.5 | 7.0 | 0.00 | 0.02 | 0.01 | 48 | 1015.1 |
| 20260502205530 | 48 | 306 | 3.5 | 7.8 | 0.00 | 0.02 | 0.01 | 48 | 1015.0 |
| 20260502205206 | 48 | 294 | 3.5 | 7.8 | 0.00 | 0.02 | 0.01 | 48 | 1015.0 |
| 20260502204839 | 47 | 26 | 3.5 | 7.8 | 0.00 | 0.02 | 0.01 | 48 | 1015.1 |
| 20260502204731 | 47 | 293 | 2.6 | 7.8 | 0.00 | 0.02 | 0.01 | 48 | 1015.0 |
| 20260502204404 | 47 | 315 | 3.5 | 10.4 | 0.00 | 0.02 | 0.01 | 49 | 1015.1 |
| 20260502204035 | 47 | 299 | 3.5 | 10.4 | 0.00 | 0.02 | 0.01 | 49 | 1015.1 |
| 20260502203713 | 47 | 304 | 3.5 | 10.4 | 0.00 | 0.02 | 0.01 | 49 | 1015.2 |
| 20260502203610 | 47 | 337 | 3.5 | 10.4 | 0.00 | 0.02 | 0.01 | 49 | 1015.2 |
| 20260502203504 | 47 | 339 | 3.5 | 10.4 | 0.00 | 0.02 | 0.01 | 49 | 1015.2 |
| 20260502203139 | 47 | 311 | 3.5 | 10.4 | 0.00 | 0.02 | 0.01 | 47 | 1015.2 |
| 20260502203034 | 47 | 292 | 3.5 | 10.4 | 0.00 | 0.02 | 0.01 | 49 | 1015.2 |
| 20260502202928 | 47 | 275 | 3.5 | 10.4 | 0.00 | 0.02 | 0.01 | 48 | 1015.2 |
| 20260502202825 | 47 | 282 | 3.5 | 10.4 | 0.00 | 0.02 | 0.01 | 49 | 1015.2 |
| 20260502202718 | 47 | 283 | 3.5 | 10.4 | 0.00 | 0.02 | 0.01 | 48 | 1015.3 |
| 20260502202614 | 47 | 272 | 3.5 | 8.7 | 0.00 | 0.02 | 0.01 | 49 | 1015.2 |
| 20260502202511 | 47 | 269 | 3.5 | 8.7 | 0.00 | 0.02 | 0.01 | 50 | 1015.2 |
| 20260502202406 | 47 | 278 | 3.5 | 8.7 | 0.00 | 0.02 | 0.01 | 50 | 1015.3 |
| 20260502202259 | 47 | 316 | 4.3 | 8.7 | 0.00 | 0.02 | 0.01 | 49 | 1015.2 |
| 20260502201931 | 47 | 282 | 3.5 | 8.7 | 0.00 | 0.02 | 0.01 | 48 | 1015.2 |
| 20260502201605 | 47 | 288 | 3.5 | 8.7 | 0.00 | 0.02 | 0.01 | 45 | 1015.3 |
| 20260502201503 | 47 | 276 | 2.6 | 8.7 | 0.00 | 0.02 | 0.01 | 47 | 1015.3 |
| 20260502201358 | 47 | 265 | 2.6 | 8.7 | 0.00 | 0.02 | 0.01 | 46 | 1015.3 |
| 20260502201251 | 47 | 344 | 2.6 | 8.7 | 0.00 | 0.02 | 0.01 | 47 | 1015.3 |
| 20260502201147 | 48 | 307 | 2.6 | 8.7 | 0.00 | 0.02 | 0.01 | 47 | 1015.3 |
| 20260502201043 | 47 | 298 | 2.6 | 8.7 | 0.00 | 0.02 | 0.01 | 49 | 1015.3 |
| 20260502200937 | 47 | 340 | 3.5 | 8.7 | 0.00 | 0.02 | 0.01 | 48 | 1015.4 |
| 20260502200835 | 47 | 338 | 3.5 | 8.7 | 0.00 | 0.02 | 0.01 | 47 | 1015.3 |
| 20260502200247 | 47 | 277 | 2.6 | 7.0 | 0.00 | 0.02 | 0.01 | 48 | 1015.4 |
| 20260502200140 | 47 | 317 | 2.6 | 7.0 | 0.00 | 0.02 | 0.01 | 49 | 1015.4 |
| 20260502200032 | 47 | 302 | 1.7 | 6.1 | 0.00 | 0.02 | 0.01 | 49 | 1015.5 |
| 20260502195926 | 47 | 314 | 1.7 | 6.1 | 0.00 | 0.02 | 0.01 | 47 | 1015.4 |
| 20260502195822 | 47 | 16 | 1.7 | 6.1 | 0.00 | 0.02 | 0.01 | 49 | 1015.4 |
| 20260502195720 | 47 | 277 | 1.7 | 6.1 | 0.00 | 0.02 | 0.01 | 48 | 1015.5 |
| 20260502195616 | 47 | 302 | 1.7 | 6.1 | 0.00 | 0.02 | 0.01 | 48 | 1015.5 |
| 20260502195510 | 47 | 304 | 1.7 | 5.2 | 0.00 | 0.02 | 0.01 | 49 | 1015.4 |
| 20260502195407 | 47 | 279 | 1.7 | 5.2 | 0.00 | 0.02 | 0.01 | 47 | 1015.5 |
| 20260502195037 | 47 | 308 | 2.6 | 0.0 | 0.00 | 0.02 | 0.01 | 46 | 1015.4 |
| 20260502194934 | 47 | 308 | 2.6 | 7.8 | 0.00 | 0.02 | 0.01 | 45 | 1015.5 |
| 20260502194831 | 47 | 0 | 2.6 | 7.8 | 0.00 | 0.02 | 0.01 | 46 | 1015.5 |
| 20260502194727 | 47 | 347 | 2.6 | 7.8 | 0.00 | 0.02 | 0.01 | 46 | 1015.5 |
| 20260502194359 | 47 | 269 | 2.6 | 7.8 | 0.00 | 0.02 | 0.01 | 49 | 1015.5 |
| 20260502194254 | 47 | 271 | 2.6 | 7.8 | 0.00 | 0.02 | 0.01 | 47 | 1015.6 |
| 20260502194152 | 47 | 298 | 2.6 | 7.8 | 0.00 | 0.02 | 0.01 | 48 | 1015.6 |
| 20260502194047 | 47 | 281 | 2.6 | 7.8 | 0.00 | 0.02 | 0.01 | 47 | 1015.5 |
| 20260502193943 | 47 | 245 | 2.6 | 7.0 | 0.00 | 0.02 | 0.01 | 48 | 1015.6 |
| 20260502193838 | 47 | 252 | 2.6 | 7.0 | 0.00 | 0.02 | 0.01 | 51 | 1015.6 |
| 20260502193731 | 47 | 264 | 2.6 | 7.0 | 0.00 | 0.02 | 0.01 | 48 | 1015.6 |
| 20260502193627 | 47 | 277 | 2.6 | 8.7 | 0.00 | 0.02 | 0.01 | 49 | 1015.6 |
| 20260502193524 | 47 | 290 | 2.6 | 8.7 | 0.00 | 0.02 | 0.01 | 48 | 1015.6 |
| 20260502193416 | 47 | 290 | 2.6 | 8.7 | 0.00 | 0.02 | 0.01 | 49 | 1015.6 |
| 20260502192835 | 47 | 323 | 2.6 | 8.7 | 0.00 | 0.02 | 0.01 | 48 | 1015.7 |
| 20260502192033 | 47 | 329 | 4.3 | 11.3 | 0.00 | 0.02 | 0.01 | 45 | 1015.7 |
| 20260502191711 | 47 | 308 | 4.3 | 11.3 | 0.00 | 0.02 | 0.01 | 47 | 1015.8 |
| 20260502191606 | 47 | 348 | 4.3 | 11.3 | 0.00 | 0.02 | 0.01 | 47 | 1015.8 |
| 20260502191501 | 47 | 289 | 4.3 | 11.3 | 0.00 | 0.02 | 0.01 | 47 | 1015.8 |
| 20260502191354 | 47 | 267 | 3.5 | 11.3 | 0.00 | 0.02 | 0.01 | 46 | 1015.8 |
| 20260502191247 | 47 | 267 | 3.5 | 11.3 | 0.00 | 0.02 | 0.01 | 46 | 1015.8 |
| 20260502191140 | 47 | 307 | 3.5 | 11.3 | 0.00 | 0.02 | 0.01 | 45 | 1015.8 |
| 20260502191036 | 47 | 309 | 3.5 | 11.3 | 0.00 | 0.02 | 0.01 | 45 | 1015.8 |
| 20260502190930 | 47 | 334 | 4.3 | 11.3 | 0.00 | 0.02 | 0.01 | 46 | 1015.8 |
| 20260502190823 | 47 | 315 | 4.3 | 11.3 | 0.00 | 0.02 | 0.01 | 48 | 1015.9 |
| 20260502190456 | 46 | 298 | 4.3 | 10.4 | 0.00 | 0.02 | 0.01 | 46 | 1015.9 |
| 20260502190352 | 46 | 267 | 4.3 | 10.4 | 0.00 | 0.02 | 0.01 | 47 | 1015.9 |
| 20260502190247 | 46 | 290 | 4.3 | 10.4 | 0.00 | 0.02 | 0.01 | 47 | 1015.9 |
| 20260502190140 | 46 | 281 | 4.3 | 10.4 | 0.00 | 0.02 | 0.01 | 48 | 1015.9 |
| 20260502190033 | 46 | 259 | 3.5 | 10.4 | 0.00 | 0.02 | 0.01 | 46 | 1016.0 |
| 20260502185928 | 46 | 307 | 3.5 | 9.6 | 0.00 | 0.02 | 0.01 | 47 | 1016.0 |
| 20260502185823 | 46 | 273 | 3.5 | 9.6 | 0.00 | 0.02 | 0.01 | 47 | 1016.0 |
| 20260502185721 | 47 | 294 | 3.5 | 9.6 | 0.00 | 0.02 | 0.01 | 48 | 1016.0 |
| 20260502185617 | 47 | 300 | 3.5 | 9.6 | 0.00 | 0.02 | 0.01 | 48 | 1016.0 |
| 20260502185511 | 47 | 267 | 3.5 | 9.6 | 0.00 | 0.02 | 0.01 | 49 | 1016.0 |
| 20260502185406 | 46 | 302 | 3.5 | 9.6 | 0.00 | 0.02 | 0.01 | 50 | 1016.0 |
| 20260502185305 | 46 | 217 | 3.5 | 9.6 | 0.00 | 0.02 | 0.01 | 49 | 1016.0 |
| 20260502184942 | 47 | 272 | 4.3 | 9.6 | 0.00 | 0.02 | 0.01 | 47 | 1016.0 |
| 20260502184837 | 47 | 272 | 4.3 | 9.6 | 0.00 | 0.02 | 0.01 | 48 | 1016.0 |
| 20260502184733 | 47 | 250 | 4.3 | 9.6 | 0.00 | 0.02 | 0.01 | 48 | 1016.0 |
| 20260502184406 | 47 | 275 | 4.3 | 9.6 | 0.00 | 0.02 | 0.01 | 51 | 1015.9 |
| 20260502184301 | 47 | 292 | 5.2 | 9.6 | 0.00 | 0.02 | 0.01 | 48 | 1016.0 |
| 20260502184155 | 47 | 287 | 4.3 | 9.6 | 0.00 | 0.02 | 0.01 | 48 | 1016.0 |
| 20260502184049 | 46 | 319 | 5.2 | 9.6 | 0.00 | 0.02 | 0.01 | 49 | 1016.0 |
| 20260502183944 | 46 | 288 | 5.2 | 10.4 | 0.00 | 0.02 | 0.01 | 48 | 1016.0 |
| 20260502183839 | 46 | 252 | 5.2 | 10.4 | 0.00 | 0.02 | 0.01 | 48 | 1016.0 |
| 20260502183736 | 46 | 282 | 5.2 | 10.4 | 0.00 | 0.02 | 0.01 | 48 | 1016.0 |
| 20260502183629 | 46 | 289 | 5.2 | 10.4 | 0.00 | 0.02 | 0.01 | 47 | 1016.1 |
| 20260502183522 | 46 | 284 | 5.2 | 10.4 | 0.00 | 0.02 | 0.01 | 46 | 1016.1 |
| 20260502183157 | 46 | 296 | 5.2 | 10.4 | 0.00 | 0.02 | 0.01 | 48 | 1016.1 |
| 20260502182944 | 46 | 300 | 4.3 | 10.4 | 0.00 | 0.02 | 0.01 | 48 | 1016.1 |
| 20260502182841 | 46 | 285 | 3.5 | 10.4 | 0.00 | 0.02 | 0.01 | 48 | 1016.1 |
| 20260502182735 | 46 | 277 | 3.5 | 10.4 | 0.00 | 0.02 | 0.01 | 51 | 1016.1 |
| 20260502182407 | 46 | 245 | 3.5 | 10.4 | 0.00 | 0.02 | 0.01 | 51 | 1016.1 |
| 20260502182045 | 46 | 293 | 4.3 | 10.4 | 0.00 | 0.02 | 0.01 | 49 | 1016.1 |
| 20260502181941 | 46 | 284 | 4.3 | 12.2 | 0.00 | 0.02 | 0.01 | 47 | 1016.1 |
| 20260502181617 | 46 | 331 | 5.2 | 12.2 | 0.00 | 0.02 | 0.01 | 47 | 1016.1 |
| 20260502181511 | 46 | 306 | 4.3 | 12.2 | 0.00 | 0.02 | 0.01 | 48 | 1016.1 |
| 20260502181408 | 46 | 275 | 4.3 | 12.2 | 0.00 | 0.02 | 0.01 | 48 | 1016.1 |
| 20260502181305 | 46 | 263 | 4.3 | 12.2 | 0.00 | 0.02 | 0.01 | 47 | 1016.1 |
| 20260502181158 | 46 | 252 | 4.3 | 12.2 | 0.00 | 0.02 | 0.01 | 48 | 1016.1 |
| 20260502181056 | 46 | 293 | 4.3 | 12.2 | 0.00 | 0.02 | 0.01 | 48 | 1016.2 |
| 20260502180950 | 46 | 280 | 4.3 | 12.2 | 0.00 | 0.02 | 0.01 | 47 | 1016.2 |
| 20260502180848 | 46 | 340 | 4.3 | 12.2 | 0.00 | 0.02 | 0.01 | 48 | 1016.2 |
| 20260502180303 | 46 | 266 | 4.3 | 12.2 | 0.00 | 0.02 | 0.01 | 47 | 1016.2 |
| 20260502180159 | 46 | 286 | 3.5 | 12.2 | 0.00 | 0.02 | 0.01 | 46 | 1016.2 |
| 20260502170432 | 45 | 269 | 3.5 | 9.6 | 0.00 | 0.02 | 0.01 | 51 | 1016.7 |
| 20260502170110 | 45 | 294 | 2.6 | 9.6 | 0.00 | 0.02 | 0.01 | 52 | 1016.6 |
| 20260502164254 | 45 | 252 | 2.6 | 7.8 | 0.00 | 0.02 | 0.01 | 54 | 1016.8 |
| 20260502164147 | 45 | 339 | 2.6 | 7.8 | 0.00 | 0.02 | 0.01 | 55 | 1016.9 |
| 20260502163825 | 45 | 329 | 3.5 | 7.8 | 0.00 | 0.02 | 0.01 | 52 | 1016.8 |
| 20260502163719 | 45 | 355 | 2.6 | 7.8 | 0.00 | 0.02 | 0.01 | 51 | 1016.8 |
| 20260502163612 | 45 | 331 | 2.6 | 7.8 | 0.00 | 0.02 | 0.01 | 54 | 1016.9 |
| 20260502163507 | 45 | 0 | 2.6 | 7.8 | 0.00 | 0.02 | 0.01 | 55 | 1016.9 |
| 20260502163142 | 45 | 294 | 2.6 | 7.8 | 0.00 | 0.02 | 0.01 | 55 | 1016.9 |
| 20260502163039 | 45 | 9 | 1.7 | 7.8 | 0.00 | 0.02 | 0.01 | 54 | 1016.8 |
| 20260502162932 | 45 | 315 | 1.7 | 7.8 | 0.00 | 0.02 | 0.01 | 56 | 1016.8 |
| 20260502162825 | 44 | 14 | 1.7 | 6.1 | 0.00 | 0.02 | 0.01 | 52 | 1016.8 |
| 20260502162721 | 44 | 321 | 2.6 | 6.1 | 0.00 | 0.02 | 0.01 | 52 | 1016.9 |
| 20260502162615 | 44 | 306 | 2.6 | 6.1 | 0.00 | 0.02 | 0.01 | 53 | 1016.9 |
| 20260502162514 | 44 | 338 | 2.6 | 6.1 | 0.00 | 0.02 | 0.01 | 53 | 1016.9 |
| 20260502162410 | 44 | 317 | 2.6 | 4.3 | 0.00 | 0.02 | 0.01 | 52 | 1016.8 |
| 20260502162307 | 44 | 348 | 2.6 | 3.5 | 0.00 | 0.02 | 0.01 | 52 | 1016.8 |
| 20260502162202 | 44 | 304 | 3.5 | 0.0 | 0.00 | 0.02 | 0.01 | 51 | 1016.8 |
| 20260502162057 | 44 | 304 | 4.3 | 8.7 | 0.00 | 0.02 | 0.01 | 51 | 1016.9 |
| 20260502161952 | 45 | 306 | 4.3 | 8.7 | 0.00 | 0.02 | 0.01 | 50 | 1016.8 |
| 20260502161848 | 45 | 292 | 3.5 | 8.7 | 0.00 | 0.02 | 0.01 | 51 | 1016.8 |
| 20260502161744 | 45 | 307 | 4.3 | 8.7 | 0.00 | 0.02 | 0.01 | 54 | 1016.8 |
| 20260502161641 | 45 | 262 | 3.5 | 8.7 | 0.00 | 0.02 | 0.01 | 54 | 1016.8 |
| 20260502161539 | 45 | 348 | 3.5 | 8.7 | 0.00 | 0.02 | 0.01 | 52 | 1016.8 |
| 20260502161434 | 45 | 0 | 3.5 | 8.7 | 0.00 | 0.02 | 0.01 | 54 | 1016.8 |
| 20260502161329 | 45 | 269 | 3.5 | 8.7 | 0.00 | 0.02 | 0.01 | 57 | 1016.9 |
| 20260502161008 | 45 | 269 | 2.6 | 8.7 | 0.00 | 0.02 | 0.01 | 56 | 1016.9 |
| 20260502160859 | 44 | 32 | 3.5 | 8.7 | 0.00 | 0.02 | 0.01 | 55 | 1016.9 |
| 20260502160753 | 44 | 320 | 2.6 | 8.7 | 0.00 | 0.02 | 0.01 | 58 | 1016.9 |
| 20260502160427 | 44 | 302 | 3.5 | 7.8 | 0.00 | 0.02 | 0.01 | 57 | 1016.9 |
| 20260502160322 | 44 | 288 | 3.5 | 7.8 | 0.00 | 0.02 | 0.01 | 53 | 1017.0 |
| 20260502152344 | 44 | 329 | 1.7 | 7.8 | 0.00 | 0.02 | 0.01 | 56 | 1016.8 |
| 20260502152238 | 44 | 348 | 1.7 | 7.8 | 0.00 | 0.02 | 0.01 | 57 | 1016.8 |
| 20260502151434 | 44 | 298 | 2.6 | 10.4 | 0.00 | 0.02 | 0.01 | 55 | 1016.9 |
| 20260502151331 | 44 | 327 | 2.6 | 10.4 | 0.00 | 0.02 | 0.01 | 54 | 1016.8 |
| 20260502151226 | 44 | 24 | 2.6 | 10.4 | 0.00 | 0.02 | 0.01 | 57 | 1016.8 |
| 20260502151120 | 44 | 333 | 2.6 | 10.4 | 0.00 | 0.02 | 0.01 | 59 | 1016.8 |
| 20260502150752 | 44 | 9 | 3.5 | 10.4 | 0.00 | 0.02 | 0.01 | 60 | 1016.7 |
| 20260502150647 | 44 | 344 | 3.5 | 10.4 | 0.00 | 0.02 | 0.01 | 59 | 1016.7 |
| 20260502150540 | 44 | 11 | 4.3 | 10.4 | 0.00 | 0.02 | 0.01 | 57 | 1016.7 |
| 20260502150438 | 44 | 263 | 4.3 | 10.4 | 0.00 | 0.02 | 0.01 | 58 | 1016.7 |
| 20260502150331 | 44 | 21 | 4.3 | 10.4 | 0.00 | 0.02 | 0.01 | 56 | 1016.8 |
| 20260502150224 | 44 | 355 | 4.3 | 10.4 | 0.00 | 0.02 | 0.01 | 58 | 1016.8 |
| 20260502130655 | 40 | 309 | 2.6 | 6.1 | 0.00 | 0.02 | 0.01 | 66 | 1016.8 |
| 20260502130328 | 40 | 331 | 1.7 | 6.1 | 0.00 | 0.02 | 0.01 | 69 | 1016.8 |
| 20260502130224 | 40 | 340 | 1.7 | 6.1 | 0.00 | 0.02 | 0.01 | 67 | 1016.8 |
| 20260502130119 | 40 | 311 | 1.7 | 6.1 | 0.00 | 0.02 | 0.01 | 68 | 1016.8 |
| 20260502123815 | 38 | 355 | 0.9 | 6.1 | 0.00 | 0.02 | 0.01 | 72 | 1016.8 |
| 20260502123450 | 38 | 308 | 1.7 | 6.1 | 0.00 | 0.02 | 0.01 | 71 | 1016.7 |
| 20260502123125 | 38 | 350 | 1.7 | 5.2 | 0.00 | 0.02 | 0.01 | 72 | 1016.8 |
| 20260502123021 | 38 | 336 | 1.7 | 5.2 | 0.00 | 0.02 | 0.01 | 72 | 1016.8 |
| 20260502122914 | 38 | 5 | 1.7 | 5.2 | 0.00 | 0.02 | 0.01 | 71 | 1016.8 |
| 20260502122812 | 38 | 5 | 1.7 | 5.2 | 0.00 | 0.02 | 0.01 | 71 | 1016.8 |
| 20260502122708 | 38 | 10 | 1.7 | 5.2 | 0.00 | 0.02 | 0.01 | 71 | 1016.7 |
| 20260502122602 | 38 | 328 | 1.7 | 5.2 | 0.00 | 0.02 | 0.01 | 72 | 1016.8 |
| 20260502122456 | 38 | 297 | 1.7 | 5.2 | 0.00 | 0.02 | 0.01 | 72 | 1016.7 |
| 20260502122352 | 38 | 277 | 1.7 | 5.2 | 0.00 | 0.02 | 0.01 | 72 | 1016.7 |
| 20260502122245 | 38 | 302 | 1.7 | 5.2 | 0.00 | 0.02 | 0.01 | 72 | 1016.8 |
| 20260502122143 | 38 | 259 | 1.7 | 5.2 | 0.00 | 0.02 | 0.01 | 72 | 1016.8 |
| 20260502122038 | 37 | 337 | 1.7 | 5.2 | 0.00 | 0.02 | 0.01 | 73 | 1016.8 |
| 20260502121935 | 37 | 334 | 1.7 | 5.2 | 0.00 | 0.02 | 0.01 | 72 | 1016.8 |
| 20260502121612 | 37 | 315 | 0.9 | 4.3 | 0.00 | 0.02 | 0.01 | 74 | 1016.7 |
| 20260502121509 | 37 | 344 | 0.9 | 4.3 | 0.00 | 0.02 | 0.01 | 73 | 1016.8 |
| 20260502121401 | 37 | 344 | 0.9 | 4.3 | 0.00 | 0.02 | 0.01 | 73 | 1016.7 |
| 20260502121254 | 37 | 11 | 0.9 | 4.3 | 0.00 | 0.02 | 0.01 | 73 | 1016.7 |
| 20260502121149 | 37 | 13 | 0.9 | 4.3 | 0.00 | 0.02 | 0.01 | 73 | 1016.7 |
| 20260502121046 | 37 | 355 | 0.9 | 4.3 | 0.00 | 0.02 | 0.01 | 74 | 1016.7 |
| 20260502120941 | 37 | 355 | 0.9 | 4.3 | 0.00 | 0.02 | 0.01 | 74 | 1016.7 |
| 20260502120837 | 37 | 22 | 0.9 | 3.5 | 0.00 | 0.02 | 0.01 | 74 | 1016.7 |
| 20260502120735 | 37 | 335 | 0.0 | 3.5 | 0.00 | 0.02 | 0.01 | 75 | 1016.6 |
| 20260502120633 | 37 | 324 | 0.0 | 3.5 | 0.00 | 0.02 | 0.01 | 75 | 1016.7 |
| 20260502120531 | 37 | 324 | 0.0 | 3.5 | 0.00 | 0.02 | 0.01 | 74 | 1016.6 |
| 20260502120425 | 37 | 323 | 0.0 | 3.5 | 0.00 | 0.02 | 0.01 | 75 | 1016.6 |
| 20260502120322 | 36 | 340 | 0.0 | 1.7 | 0.00 | 0.02 | 0.01 | 75 | 1016.6 |
| 20260502120219 | 36 | 350 | 0.0 | 4.3 | 0.00 | 0.02 | 0.01 | 74 | 1016.6 |
| 20260502120115 | 36 | 350 | 0.0 | 4.3 | 0.00 | 0.02 | 0.01 | 75 | 1016.6 |
| 20260502115645 | 36 | 348 | 0.0 | 3.5 | 0.00 | 0.02 | 0.01 | 76 | 1016.5 |
| 20260502115542 | 36 | 348 | 0.0 | 3.5 | 0.00 | 0.02 | 0.01 | 76 | 1016.5 |
| 20260502115220 | 36 | 330 | 0.0 | 0.0 | 0.00 | 0.01 | 0.01 | 77 | 1016.5 |
| 20260502114850 | 35 | 344 | 0.0 | 3.5 | 0.00 | 0.01 | 0.00 | 76 | 1016.5 |
| 20260502114746 | 35 | 344 | 0.0 | 3.5 | 0.00 | 0.01 | 0.00 | 76 | 1016.5 |
| 20260502114638 | 35 | 336 | 0.0 | 2.6 | 0.00 | 0.01 | 0.00 | 76 | 1016.5 |
| 20260502114535 | 35 | 322 | 0.0 | 2.6 | 0.00 | 0.01 | 0.00 | 77 | 1016.5 |
| 20260502114432 | 35 | 321 | 0.0 | 2.6 | 0.00 | 0.01 | 0.00 | 77 | 1016.5 |
| 20260502114329 | 35 | 321 | 0.0 | 0.9 | 0.00 | 0.01 | 0.00 | 77 | 1016.5 |
| 20260502114227 | 35 | 342 | 0.0 | 0.0 | 0.00 | 0.01 | 0.00 | 77 | 1016.5 |
| 20260502114125 | 35 | 342 | 0.0 | 1.7 | 0.00 | 0.01 | 0.00 | 77 | 1016.5 |
| 20260502114022 | 35 | 344 | 0.0 | 1.7 | 0.00 | 0.01 | 0.00 | 78 | 1016.5 |
| 20260502113919 | 35 | 344 | 0.0 | 0.0 | 0.00 | 0.01 | 0.00 | 78 | 1016.5 |
| 20260502113813 | 35 | 288 | 0.0 | 0.0 | 0.00 | 0.01 | 0.00 | 78 | 1016.4 |
| 20260502113706 | 35 | 288 | 0.0 | 0.0 | 0.00 | 0.01 | 0.00 | 78 | 1016.5 |
| 20260502113601 | 34 | 288 | 0.0 | 0.0 | 0.00 | 0.01 | 0.00 | 78 | 1016.4 |
| 20260502113456 | 34 | 288 | 0.0 | 0.0 | 0.00 | 0.01 | 0.00 | 78 | 1016.5 |
| 20260502113352 | 34 | 278 | 0.0 | 0.0 | 0.00 | 0.01 | 0.00 | 79 | 1016.5 |
| 20260502113030 | 34 | 277 | 0.0 | 0.0 | 0.00 | 0.01 | 0.00 | 79 | 1016.4 |
| 20260502112926 | 34 | 277 | 0.0 | 0.0 | 0.00 | 0.01 | 0.00 | 79 | 1016.4 |
| 20260502112823 | 34 | 277 | 0.0 | 0.0 | 0.00 | 0.01 | 0.00 | 79 | 1016.4 |
| 20260502112721 | 34 | 277 | 0.0 | 0.0 | 0.00 | 0.01 | 0.00 | 79 | 1016.4 |
| 20260502112615 | 34 | 277 | 0.0 | 0.0 | 0.00 | 0.01 | 0.00 | 79 | 1016.3 |
| 20260502112509 | 34 | 277 | 0.0 | 0.0 | 0.00 | 0.01 | 0.00 | 79 | 1016.3 |
| 20260502112148 | 34 | 277 | 0.0 | 0.0 | 0.00 | 0.01 | 0.00 | 79 | 1016.3 |
| 20260502112044 | 34 | 277 | 0.0 | 0.0 | 0.00 | 0.01 | 0.00 | 79 | 1016.3 |
| 20260502111716 | 33 | 277 | 0.0 | 0.0 | 0.00 | 0.01 | 0.00 | 80 | 1016.3 |
| 20260502111352 | 33 | 277 | 0.0 | 0.0 | 0.00 | 0.01 | 0.00 | 80 | 1016.3 |
| 20260502111244 | 33 | 277 | 0.0 | 0.0 | 0.00 | 0.01 | 0.00 | 80 | 1016.3 |
| 20260502111141 | 33 | 277 | 0.0 | 0.0 | 0.00 | 0.01 | 0.00 | 80 | 1016.3 |
| 20260502111037 | 33 | 277 | 0.0 | 0.0 | 0.00 | 0.01 | 0.00 | 80 | 1016.2 |
| 20260502110930 | 33 | 277 | 0.0 | 0.0 | 0.00 | 0.01 | 0.00 | 80 | 1016.2 |
| 20260502110824 | 33 | 277 | 0.0 | 0.0 | 0.00 | 0.01 | 0.00 | 80 | 1016.2 |
| 20260502110717 | 33 | 277 | 0.0 | 0.0 | 0.00 | 0.01 | 0.00 | 80 | 1016.2 |
| 20260502110613 | 33 | 277 | 0.0 | 0.0 | 0.00 | 0.01 | 0.00 | 80 | 1016.2 |
| 20260502110508 | 33 | 277 | 0.0 | 0.0 | 0.00 | 0.01 | 0.00 | 80 | 1016.2 |
| 20260502110401 | 33 | 277 | 0.0 | 0.0 | 0.00 | 0.01 | 0.00 | 80 | 1016.1 |
| 20260502110300 | 33 | 277 | 0.0 | 0.0 | 0.00 | 0.01 | 0.00 | 80 | 1016.1 |
| 20260502110152 | 32 | 277 | 0.0 | 0.0 | 0.00 | 0.01 | 0.00 | 80 | 1016.1 |
| 20260502110046 | 32 | 277 | 0.0 | 0.0 | 0.00 | 0.01 | 0.00 | 80 | 1016.1 |
| 20260502105944 | 32 | 277 | 0.0 | 0.0 | 0.00 | 0.01 | 0.00 | 80 | 1016.1 |
| 20260502105838 | 32 | 277 | 0.0 | 0.0 | 0.00 | 0.01 | 0.00 | 80 | 1016.2 |
| 20260502105734 | 32 | 277 | 0.0 | 0.0 | 0.00 | 0.01 | 0.00 | 80 | 1016.1 |
| 20260502105627 | 32 | 277 | 0.0 | 0.0 | 0.00 | 0.01 | 0.00 | 80 | 1016.1 |
| 20260502105521 | 32 | 277 | 0.0 | 0.0 | 0.00 | 0.01 | 0.00 | 80 | 1016.1 |
| 20260502105419 | 32 | 277 | 0.0 | 0.0 | 0.00 | 0.01 | 0.00 | 80 | 1016.1 |
| 20260502105316 | 32 | 277 | 0.0 | 0.0 | 0.00 | 0.01 | 0.00 | 79 | 1016.0 |
| 20260502105214 | 32 | 277 | 0.0 | 0.0 | 0.00 | 0.01 | 0.00 | 79 | 1016.1 |
| 20260502105112 | 32 | 277 | 0.0 | 0.0 | 0.00 | 0.01 | 0.00 | 79 | 1016.1 |
| 20260502105009 | 32 | 277 | 0.0 | 0.0 | 0.00 | 0.01 | 0.00 | 79 | 1016.1 |
| 20260502104906 | 32 | 277 | 0.0 | 0.0 | 0.00 | 0.01 | 0.00 | 79 | 1016.1 |
| 20260502104801 | 32 | 277 | 0.0 | 0.0 | 0.00 | 0.01 | 0.00 | 79 | 1016.1 |
| 20260502104659 | 32 | 277 | 0.0 | 0.0 | 0.00 | 0.01 | 0.00 | 79 | 1016.1 |
| 20260502104556 | 32 | 277 | 0.0 | 0.0 | 0.00 | 0.01 | 0.00 | 79 | 1016.1 |
| 20260502104450 | 33 | 277 | 0.0 | 0.0 | 0.00 | 0.01 | 0.00 | 79 | 1016.1 |
| 20260502103908 | 33 | 277 | 0.0 | 0.0 | 0.00 | 0.01 | 0.00 | 79 | 1016.0 |
| 20260502103802 | 33 | 277 | 0.0 | 0.0 | 0.00 | 0.01 | 0.00 | 79 | 1016.0 |
| 20260502103659 | 33 | 277 | 0.0 | 0.0 | 0.00 | 0.01 | 0.00 | 79 | 1016.0 |
| 20260502103553 | 33 | 277 | 0.0 | 0.0 | 0.00 | 0.01 | 0.00 | 79 | 1016.1 |
| 20260502103448 | 33 | 278 | 0.0 | 0.0 | 0.00 | 0.01 | 0.00 | 79 | 1016.1 |
| 20260502103344 | 33 | 278 | 0.0 | 0.0 | 0.00 | 0.01 | 0.00 | 79 | 1016.0 |
| 20260502103238 | 33 | 278 | 0.0 | 0.0 | 0.00 | 0.01 | 0.00 | 79 | 1016.0 |
| 20260502103133 | 33 | 278 | 0.0 | 0.0 | 0.00 | 0.01 | 0.00 | 79 | 1016.0 |
| 20260502103026 | 33 | 278 | 0.0 | 0.0 | 0.00 | 0.01 | 0.00 | 79 | 1016.0 |
| 20260502102921 | 33 | 278 | 0.0 | 0.0 | 0.00 | 0.01 | 0.00 | 79 | 1016.0 |
| 20260502102815 | 33 | 278 | 0.0 | 0.0 | 0.00 | 0.01 | 0.00 | 79 | 1016.1 |
| 20260502102449 | 33 | 278 | 0.0 | 0.0 | 0.00 | 0.01 | 0.00 | 78 | 1016.0 |
| 20260502102344 | 33 | 278 | 0.0 | 0.0 | 0.00 | 0.01 | 0.00 | 78 | 1016.0 |
| 20260502102242 | 33 | 278 | 0.0 | 0.0 | 0.00 | 0.01 | 0.00 | 78 | 1016.0 |
| 20260502102138 | 33 | 278 | 0.0 | 0.0 | 0.00 | 0.01 | 0.00 | 78 | 1016.0 |
| 20260502102033 | 33 | 278 | 0.0 | 0.0 | 0.00 | 0.01 | 0.00 | 78 | 1016.0 |
| 20260502101930 | 33 | 279 | 0.0 | 0.0 | 0.00 | 0.01 | 0.00 | 78 | 1016.0 |
| 20260502101824 | 33 | 278 | 0.0 | 0.0 | 0.00 | 0.01 | 0.00 | 78 | 1016.0 |
| 20260502101722 | 33 | 279 | 0.0 | 0.0 | 0.00 | 0.01 | 0.00 | 78 | 1015.9 |
| 20260502101620 | 33 | 279 | 0.0 | 0.0 | 0.00 | 0.01 | 0.00 | 78 | 1015.9 |
| 20260502101518 | 33 | 279 | 0.0 | 0.0 | 0.00 | 0.01 | 0.00 | 78 | 1015.9 |
| 20260502101412 | 33 | 279 | 0.0 | 0.0 | 0.00 | 0.01 | 0.00 | 78 | 1015.9 |
| 20260502101306 | 33 | 279 | 0.0 | 0.0 | 0.00 | 0.01 | 0.00 | 78 | 1016.0 |
| 20260502101202 | 33 | 281 | 0.0 | 0.0 | 0.00 | 0.01 | 0.00 | 78 | 1016.0 |
| 20260502101056 | 33 | 282 | 0.0 | 0.0 | 0.00 | 0.01 | 0.00 | 78 | 1016.0 |
| 20260502100950 | 33 | 284 | 0.0 | 0.0 | 0.00 | 0.01 | 0.00 | 78 | 1016.0 |
| 20260502100843 | 33 | 284 | 0.0 | 0.0 | 0.00 | 0.01 | 0.00 | 78 | 1016.0 |
| 20260502100737 | 33 | 284 | 0.0 | 0.0 | 0.00 | 0.01 | 0.00 | 77 | 1016.0 |
| 20260502100634 | 33 | 284 | 0.0 | 0.0 | 0.00 | 0.01 | 0.00 | 77 | 1016.0 |
| 20260502100528 | 33 | 284 | 0.0 | 0.0 | 0.00 | 0.01 | 0.00 | 77 | 1015.9 |
| 20260502100422 | 33 | 284 | 0.0 | 0.0 | 0.00 | 0.01 | 0.00 | 77 | 1015.9 |
| 20260502100315 | 33 | 284 | 0.0 | 0.0 | 0.00 | 0.01 | 0.00 | 77 | 1015.9 |
| 20260502100209 | 33 | 284 | 0.0 | 0.0 | 0.00 | 0.01 | 0.00 | 77 | 1015.9 |
| 20260502091431 | 35 | 316 | 0.0 | 0.0 | 0.00 | 0.01 | 0.00 | 75 | 1015.8 |
| 20260502091107 | 35 | 320 | 0.0 | 0.0 | 0.00 | 0.01 | 0.00 | 75 | 1015.7 |
| 20260502091005 | 35 | 320 | 0.0 | 0.0 | 0.00 | 0.01 | 0.00 | 75 | 1015.7 |
| 20260502090642 | 35 | 320 | 0.0 | 0.0 | 0.00 | 0.01 | 0.00 | 75 | 1015.7 |
| 20260502090537 | 35 | 320 | 0.0 | 0.0 | 0.00 | 0.01 | 0.00 | 75 | 1015.7 |
| 20260502090432 | 35 | 321 | 0.0 | 0.0 | 0.00 | 0.01 | 0.00 | 75 | 1015.7 |
| 20260502090327 | 35 | 321 | 0.0 | 0.0 | 0.00 | 0.01 | 0.00 | 75 | 1015.6 |
| 20260502090221 | 35 | 320 | 0.0 | 0.0 | 0.00 | 0.01 | 0.00 | 75 | 1015.6 |
| 20260502071525 | 39 | 322 | 0.0 | 0.0 | 0.00 | 0.03 | 0.00 | 68 | 1015.2 |
| 20260502071420 | 39 | 322 | 0.0 | 0.0 | 0.00 | 0.03 | 0.00 | 68 | 1015.2 |
| 20260502071318 | 39 | 322 | 0.0 | 0.0 | 0.00 | 0.03 | 0.00 | 68 | 1015.2 |
| 20260502071211 | 39 | 322 | 0.0 | 0.0 | 0.00 | 0.03 | 0.00 | 68 | 1015.2 |
| 20260502071108 | 39 | 322 | 0.0 | 0.0 | 0.00 | 0.03 | 0.00 | 68 | 1015.2 |
| 20260502071000 | 39 | 322 | 0.0 | 0.0 | 0.00 | 0.03 | 0.00 | 68 | 1015.2 |
| 20260502070857 | 39 | 322 | 0.0 | 0.0 | 0.00 | 0.03 | 0.00 | 68 | 1015.2 |
| 20260502070752 | 39 | 322 | 0.0 | 0.0 | 0.00 | 0.04 | 0.00 | 68 | 1015.2 |
| 20260502070645 | 39 | 322 | 0.0 | 0.0 | 0.00 | 0.04 | 0.00 | 68 | 1015.2 |
| 20260502070321 | 39 | 329 | 0.0 | 0.0 | 0.00 | 0.04 | 0.00 | 69 | 1015.2 |
| 20260502070213 | 39 | 330 | 0.0 | 0.0 | 0.00 | 0.04 | 0.00 | 68 | 1015.2 |
| 20260502070107 | 39 | 330 | 0.0 | 0.0 | 0.00 | 0.04 | 0.00 | 68 | 1015.2 |
| 20260502070001 | 39 | 330 | 0.9 | 0.0 | 0.00 | 0.04 | 0.00 | 68 | 1015.1 |
| 20260502065855 | 39 | 330 | 0.9 | 0.0 | 0.00 | 0.04 | 0.00 | 68 | 1015.1 |
| 20260502065748 | 39 | 330 | 0.9 | 4.3 | 0.00 | 0.04 | 0.00 | 68 | 1015.2 |
| 20260502065644 | 39 | 330 | 0.9 | 4.3 | 0.00 | 0.04 | 0.00 | 67 | 1015.2 |
| 20260502065538 | 39 | 330 | 0.9 | 4.3 | 0.00 | 0.04 | 0.00 | 67 | 1015.2 |
| 20260502065432 | 39 | 340 | 0.9 | 4.3 | 0.00 | 0.04 | 0.00 | 67 | 1015.2 |
| 20260502065324 | 39 | 342 | 0.9 | 4.3 | 0.00 | 0.04 | 0.00 | 68 | 1015.2 |
| 20260502065219 | 39 | 328 | 0.9 | 4.3 | 0.00 | 0.04 | 0.00 | 68 | 1015.2 |
| 20260502065113 | 39 | 326 | 0.9 | 4.3 | 0.00 | 0.04 | 0.00 | 69 | 1015.2 |
| 20260502064744 | 39 | 326 | 0.0 | 4.3 | 0.00 | 0.04 | 0.00 | 68 | 1015.3 |
| 20260502064426 | 39 | 346 | 0.0 | 2.6 | 0.00 | 0.04 | 0.00 | 70 | 1015.3 |
| 20260502064320 | 39 | 325 | 0.0 | 0.0 | 0.00 | 0.04 | 0.00 | 70 | 1015.3 |
| 20260502064214 | 39 | 324 | 0.0 | 0.0 | 0.00 | 0.04 | 0.00 | 70 | 1015.3 |
| 20260502064108 | 39 | 355 | 0.0 | 0.0 | 0.00 | 0.04 | 0.00 | 70 | 1015.3 |
| 20260502064003 | 39 | 355 | 0.0 | 0.0 | 0.00 | 0.04 | 0.00 | 71 | 1015.3 |
| 20260502063856 | 39 | 325 | 0.0 | 0.0 | 0.00 | 0.04 | 0.00 | 70 | 1015.4 |
| 20260502063753 | 39 | 325 | 0.0 | 0.0 | 0.00 | 0.04 | 0.00 | 70 | 1015.4 |
| 20260502063651 | 39 | 325 | 0.0 | 0.0 | 0.00 | 0.04 | 0.00 | 70 | 1015.4 |
| 20260502063547 | 39 | 325 | 0.0 | 0.0 | 0.00 | 0.04 | 0.00 | 70 | 1015.4 |
| 20260502063444 | 39 | 325 | 0.0 | 0.0 | 0.00 | 0.04 | 0.00 | 70 | 1015.4 |
| 20260502063122 | 39 | 325 | 0.0 | 0.0 | 0.00 | 0.04 | 0.00 | 70 | 1015.4 |
| 20260502063017 | 39 | 325 | 0.0 | 0.0 | 0.00 | 0.04 | 0.00 | 71 | 1015.3 |
| 20260502062911 | 39 | 325 | 0.0 | 0.0 | 0.00 | 0.04 | 0.00 | 72 | 1015.4 |
| 20260502062544 | 39 | 325 | 0.0 | 0.0 | 0.00 | 0.04 | 0.00 | 71 | 1015.3 |
| 20260502062442 | 39 | 325 | 0.0 | 0.0 | 0.00 | 0.04 | 0.00 | 71 | 1015.4 |
| 20260502062337 | 39 | 325 | 0.0 | 0.0 | 0.00 | 0.04 | 0.00 | 71 | 1015.4 |
| 20260502062234 | 39 | 325 | 0.0 | 0.0 | 0.00 | 0.04 | 0.00 | 70 | 1015.4 |
| 20260502062131 | 39 | 325 | 0.0 | 0.0 | 0.00 | 0.04 | 0.00 | 70 | 1015.4 |
| 20260502062027 | 39 | 326 | 0.0 | 0.0 | 0.00 | 0.04 | 0.00 | 71 | 1015.4 |
| 20260502061924 | 39 | 326 | 0.0 | 0.0 | 0.00 | 0.04 | 0.00 | 71 | 1015.4 |
| 20260502061821 | 39 | 326 | 0.0 | 0.0 | 0.00 | 0.04 | 0.00 | 71 | 1015.4 |
| 20260502061715 | 39 | 327 | 0.0 | 0.0 | 0.00 | 0.04 | 0.00 | 71 | 1015.4 |
| 20260502061241 | 39 | 306 | 0.0 | 0.9 | 0.00 | 0.04 | 0.00 | 72 | 1015.4 |
| 20260502061133 | 39 | 306 | 0.0 | 0.9 | 0.00 | 0.04 | 0.00 | 72 | 1015.4 |
| 20260502061026 | 39 | 306 | 0.0 | 0.9 | 0.00 | 0.04 | 0.00 | 72 | 1015.4 |
| 20260502060921 | 39 | 292 | 0.0 | 0.0 | 0.00 | 0.04 | 0.00 | 73 | 1015.5 |
| 20260502060816 | 39 | 293 | 0.0 | 0.0 | 0.00 | 0.04 | 0.00 | 73 | 1015.4 |
| 20260502060713 | 39 | 293 | 0.0 | 0.0 | 0.00 | 0.04 | 0.00 | 73 | 1015.4 |
| 20260502060610 | 39 | 293 | 0.0 | 0.0 | 0.00 | 0.04 | 0.00 | 73 | 1015.4 |
| 20260502060505 | 39 | 293 | 0.0 | 0.9 | 0.00 | 0.04 | 0.00 | 74 | 1015.5 |
| 20260502060401 | 39 | 293 | 0.0 | 0.9 | 0.00 | 0.04 | 0.00 | 74 | 1015.5 |
| 20260502060257 | 39 | 303 | 0.0 | 0.0 | 0.00 | 0.04 | 0.00 | 74 | 1015.5 |
| 20260502060153 | 39 | 303 | 0.0 | 0.0 | 0.00 | 0.04 | 0.00 | 75 | 1015.5 |
| 20260502060047 | 39 | 303 | 0.0 | 0.0 | 0.00 | 0.04 | 0.00 | 75 | 1015.5 |
| 20260502055945 | 39 | 303 | 0.0 | 0.0 | 0.00 | 0.04 | 0.00 | 74 | 1015.5 |
| 20260502055837 | 39 | 303 | 0.0 | 0.0 | 0.00 | 0.04 | 0.00 | 74 | 1015.5 |
| 20260502055735 | 39 | 303 | 0.0 | 0.0 | 0.00 | 0.04 | 0.00 | 75 | 1015.5 |
| 20260502055632 | 39 | 303 | 0.0 | 0.0 | 0.00 | 0.05 | 0.00 | 75 | 1015.5 |
| 20260502055527 | 39 | 303 | 0.0 | 0.0 | 0.00 | 0.05 | 0.00 | 75 | 1015.5 |
| 20260502055425 | 39 | 303 | 0.0 | 0.0 | 0.00 | 0.05 | 0.00 | 76 | 1015.5 |
| 20260502055319 | 39 | 303 | 0.0 | 0.0 | 0.00 | 0.05 | 0.00 | 76 | 1015.5 |
| 20260502054953 | 39 | 302 | 0.0 | 0.0 | 0.00 | 0.05 | 0.00 | 76 | 1015.6 |
| 20260502054850 | 39 | 302 | 0.0 | 0.0 | 0.00 | 0.05 | 0.00 | 76 | 1015.5 |
| 20260502054743 | 39 | 302 | 0.0 | 0.0 | 0.00 | 0.05 | 0.00 | 76 | 1015.5 |
| 20260502054638 | 39 | 302 | 0.0 | 0.0 | 0.00 | 0.05 | 0.00 | 76 | 1015.6 |
| 20260502054532 | 39 | 302 | 0.0 | 0.0 | 0.00 | 0.05 | 0.00 | 76 | 1015.6 |
| 20260502054202 | 39 | 302 | 0.0 | 0.0 | 0.00 | 0.05 | 0.00 | 77 | 1015.5 |
| 20260502054055 | 39 | 302 | 0.0 | 0.0 | 0.00 | 0.05 | 0.00 | 78 | 1015.5 |
| 20260502053732 | 39 | 302 | 0.0 | 0.0 | 0.00 | 0.05 | 0.00 | 78 | 1015.6 |
| 20260502053627 | 39 | 302 | 0.0 | 0.0 | 0.00 | 0.05 | 0.00 | 78 | 1015.5 |
| 20260502053305 | 39 | 302 | 0.0 | 0.0 | 0.00 | 0.05 | 0.00 | 78 | 1015.5 |
| 20260502052939 | 39 | 271 | 0.0 | 0.0 | 0.00 | 0.05 | 0.00 | 79 | 1015.5 |
| 20260502052836 | 39 | 271 | 0.0 | 0.0 | 0.00 | 0.05 | 0.00 | 79 | 1015.5 |
| 20260502052728 | 39 | 271 | 0.0 | 0.0 | 0.00 | 0.05 | 0.00 | 79 | 1015.5 |
| 20260502052625 | 39 | 271 | 0.0 | 0.0 | 0.00 | 0.05 | 0.00 | 79 | 1015.6 |
| 20260502052522 | 39 | 271 | 0.0 | 0.0 | 0.00 | 0.05 | 0.00 | 79 | 1015.5 |
| 20260502052417 | 39 | 271 | 0.0 | 0.0 | 0.00 | 0.05 | 0.00 | 79 | 1015.5 |
| 20260502052315 | 39 | 271 | 0.0 | 0.0 | 0.00 | 0.05 | 0.00 | 79 | 1015.5 |
| 20260502052213 | 39 | 271 | 0.0 | 0.0 | 0.00 | 0.05 | 0.00 | 79 | 1015.5 |
| 20260502052110 | 39 | 271 | 0.0 | 0.0 | 0.00 | 0.05 | 0.00 | 78 | 1015.5 |
| 20260502052002 | 39 | 271 | 0.0 | 0.0 | 0.00 | 0.05 | 0.00 | 78 | 1015.5 |
| 20260502051855 | 39 | 271 | 0.0 | 0.0 | 0.00 | 0.05 | 0.00 | 78 | 1015.5 |
| 20260502051753 | 39 | 271 | 0.0 | 0.0 | 0.00 | 0.05 | 0.00 | 78 | 1015.6 |
| 20260502051646 | 39 | 271 | 0.0 | 0.0 | 0.00 | 0.05 | 0.00 | 78 | 1015.5 |
| 20260502051542 | 39 | 271 | 0.0 | 0.0 | 0.00 | 0.05 | 0.00 | 78 | 1015.5 |
| 20260502051220 | 39 | 271 | 0.0 | 0.0 | 0.00 | 0.05 | 0.00 | 78 | 1015.4 |
| 20260502051115 | 39 | 271 | 0.0 | 0.0 | 0.00 | 0.05 | 0.00 | 78 | 1015.5 |
| 20260502051008 | 39 | 271 | 0.0 | 0.0 | 0.00 | 0.05 | 0.00 | 78 | 1015.4 |
| 20260502050905 | 39 | 271 | 0.0 | 0.0 | 0.00 | 0.05 | 0.00 | 78 | 1015.5 |
| 20260502050758 | 39 | 271 | 0.0 | 0.0 | 0.00 | 0.05 | 0.00 | 78 | 1015.5 |
| 20260502050653 | 39 | 271 | 0.0 | 0.0 | 0.00 | 0.05 | 0.00 | 78 | 1015.5 |
| 20260502050550 | 39 | 271 | 0.0 | 0.0 | 0.00 | 0.05 | 0.00 | 78 | 1015.5 |
| 20260502050445 | 39 | 271 | 0.0 | 0.0 | 0.00 | 0.05 | 0.00 | 78 | 1015.5 |
| 20260502050339 | 39 | 270 | 0.0 | 0.0 | 0.00 | 0.05 | 0.00 | 79 | 1015.5 |
| 20260502050231 | 39 | 270 | 0.0 | 0.0 | 0.00 | 0.05 | 0.00 | 78 | 1015.5 |
| 20260502050128 | 39 | 270 | 0.0 | 0.0 | 0.00 | 0.05 | 0.00 | 78 | 1015.5 |
| 20260502045802 | 39 | 270 | 0.0 | 0.0 | 0.00 | 0.05 | 0.00 | 78 | 1015.5 |
| 20260502045656 | 39 | 270 | 0.0 | 0.0 | 0.00 | 0.05 | 0.00 | 78 | 1015.5 |
| 20260502045554 | 39 | 270 | 0.0 | 0.0 | 0.00 | 0.05 | 0.00 | 78 | 1015.5 |
| 20260502045451 | 39 | 270 | 0.0 | 0.0 | 0.00 | 0.05 | 0.00 | 78 | 1015.4 |
| 20260502045344 | 39 | 270 | 0.0 | 1.7 | 0.00 | 0.05 | 0.00 | 78 | 1015.5 |
| 20260502045240 | 39 | 270 | 0.0 | 1.7 | 0.00 | 0.05 | 0.00 | 78 | 1015.5 |
| 20260502045134 | 39 | 269 | 0.0 | 1.7 | 0.00 | 0.05 | 0.00 | 79 | 1015.5 |
| 20260502045032 | 39 | 269 | 0.0 | 0.9 | 0.00 | 0.05 | 0.00 | 79 | 1015.4 |
| 20260502044928 | 39 | 269 | 0.0 | 0.0 | 0.00 | 0.05 | 0.00 | 79 | 1015.4 |
| 20260502044824 | 39 | 269 | 0.0 | 2.6 | 0.00 | 0.05 | 0.00 | 79 | 1015.4 |
| 20260502044721 | 39 | 269 | 0.0 | 2.6 | 0.00 | 0.05 | 0.00 | 79 | 1015.4 |
| 20260502044616 | 39 | 269 | 0.0 | 2.6 | 0.00 | 0.05 | 0.00 | 79 | 1015.4 |
| 20260502044509 | 39 | 269 | 0.0 | 2.6 | 0.00 | 0.05 | 0.00 | 79 | 1015.4 |
| 20260502043925 | 39 | 257 | 0.0 | 2.6 | 0.00 | 0.05 | 0.00 | 79 | 1015.4 |
| 20260502043600 | 39 | 260 | 0.9 | 4.3 | 0.00 | 0.05 | 0.00 | 79 | 1015.4 |
| 20260502043230 | 39 | 277 | 0.9 | 4.3 | 0.00 | 0.05 | 0.00 | 80 | 1015.3 |
| 20260502043123 | 39 | 287 | 0.0 | 0.0 | 0.00 | 0.05 | 0.00 | 80 | 1015.3 |
| 20260502043016 | 39 | 300 | 0.9 | 2.6 | 0.00 | 0.05 | 0.00 | 80 | 1015.3 |
| 20260502042650 | 39 | 260 | 0.9 | 2.6 | 0.00 | 0.06 | 0.00 | 81 | 1015.3 |
| 20260502042543 | 39 | 266 | 0.0 | 2.6 | 0.00 | 0.06 | 0.00 | 81 | 1015.3 |
| 20260502042436 | 39 | 296 | 0.0 | 2.6 | 0.00 | 0.06 | 0.00 | 82 | 1015.3 |
| 20260502042334 | 39 | 300 | 0.0 | 2.6 | 0.00 | 0.06 | 0.00 | 82 | 1015.3 |
| 20260502042229 | 39 | 300 | 0.0 | 2.6 | 0.00 | 0.06 | 0.00 | 82 | 1015.3 |
| 20260502042125 | 39 | 300 | 0.0 | 2.6 | 0.00 | 0.06 | 0.00 | 82 | 1015.3 |
| 20260502042023 | 39 | 300 | 0.0 | 2.6 | 0.00 | 0.06 | 0.00 | 81 | 1015.3 |
| 20260502041920 | 39 | 300 | 0.0 | 2.6 | 0.00 | 0.06 | 0.00 | 81 | 1015.3 |
| 20260502041815 | 38 | 300 | 0.0 | 2.6 | 0.00 | 0.06 | 0.00 | 82 | 1015.2 |
| 20260502041709 | 38 | 306 | 0.0 | 1.7 | 0.00 | 0.06 | 0.00 | 82 | 1015.2 |
| 20260502041603 | 38 | 306 | 0.0 | 1.7 | 0.00 | 0.06 | 0.00 | 82 | 1015.2 |
| 20260502041233 | 38 | 308 | 0.0 | 0.0 | 0.00 | 0.08 | 0.00 | 82 | 1015.1 |
| 20260502041130 | 38 | 308 | 0.0 | 0.0 | 0.00 | 0.08 | 0.00 | 82 | 1015.1 |
| 20260502041026 | 38 | 308 | 0.0 | 0.0 | 0.00 | 0.08 | 0.00 | 82 | 1015.1 |
| 20260502040924 | 38 | 308 | 0.0 | 0.0 | 0.00 | 0.08 | 0.00 | 82 | 1015.0 |
| 20260502040819 | 38 | 308 | 0.0 | 0.0 | 0.00 | 0.08 | 0.00 | 82 | 1015.0 |
| 20260502040456 | 38 | 308 | 0.0 | 0.0 | 0.00 | 0.08 | 0.00 | 82 | 1015.0 |
| 20260502035912 | 38 | 308 | 0.0 | 0.0 | 0.00 | 0.08 | 0.08 | 82 | 1015.0 |
| 20260502035810 | 38 | 308 | 0.0 | 0.0 | 0.00 | 0.08 | 0.08 | 82 | 1015.0 |
| 20260502035704 | 38 | 308 | 0.0 | 0.0 | 0.00 | 0.08 | 0.08 | 82 | 1015.0 |
| 20260502035340 | 38 | 308 | 0.0 | 0.0 | 0.00 | 0.08 | 0.08 | 83 | 1015.0 |
| 20260502035236 | 38 | 308 | 0.0 | 0.0 | 0.00 | 0.08 | 0.08 | 83 | 1015.0 |
| 20260502035132 | 37 | 308 | 0.0 | 0.0 | 0.00 | 0.09 | 0.08 | 83 | 1015.0 |
| 20260502034809 | 37 | 308 | 0.0 | 0.0 | 0.00 | 0.09 | 0.08 | 84 | 1014.9 |
| 20260502034706 | 37 | 308 | 0.0 | 0.0 | 0.00 | 0.09 | 0.08 | 84 | 1014.9 |
| 20260502034602 | 37 | 308 | 0.0 | 0.0 | 0.00 | 0.09 | 0.08 | 84 | 1014.9 |
| 20260502034456 | 37 | 308 | 0.0 | 0.0 | 0.00 | 0.09 | 0.08 | 84 | 1014.9 |
| 20260502034351 | 37 | 308 | 0.0 | 0.0 | 0.00 | 0.09 | 0.08 | 84 | 1014.9 |
| 20260502034243 | 37 | 308 | 0.0 | 0.0 | 0.00 | 0.09 | 0.08 | 84 | 1014.9 |
| 20260502034141 | 37 | 308 | 0.0 | 0.0 | 0.00 | 0.09 | 0.08 | 84 | 1014.9 |
| 20260502034033 | 37 | 308 | 0.0 | 0.0 | 0.00 | 0.09 | 0.08 | 84 | 1014.9 |
| 20260502033927 | 37 | 308 | 0.0 | 0.0 | 0.00 | 0.09 | 0.08 | 84 | 1014.9 |
| 20260502033824 | 37 | 308 | 0.0 | 0.0 | 0.00 | 0.09 | 0.08 | 83 | 1014.9 |
| 20260502033717 | 37 | 308 | 0.0 | 0.0 | 0.00 | 0.09 | 0.08 | 83 | 1014.9 |
| 20260502033354 | 37 | 308 | 0.0 | 0.0 | 0.00 | 0.10 | 0.08 | 83 | 1014.9 |
| 20260502033033 | 37 | 308 | 0.0 | 0.0 | 0.00 | 0.10 | 0.08 | 83 | 1014.8 |
| 20260502032930 | 37 | 308 | 0.0 | 0.0 | 0.00 | 0.10 | 0.08 | 82 | 1014.9 |
| 20260502032823 | 37 | 308 | 0.0 | 0.0 | 0.00 | 0.10 | 0.08 | 82 | 1014.9 |
| 20260502032719 | 37 | 308 | 0.0 | 0.0 | 0.00 | 0.11 | 0.08 | 82 | 1014.9 |
| 20260502032615 | 37 | 308 | 0.0 | 0.0 | 0.00 | 0.11 | 0.08 | 82 | 1014.9 |
| 20260502032251 | 37 | 308 | 0.0 | 0.0 | 0.00 | 0.11 | 0.08 | 82 | 1014.9 |
| 20260502032149 | 37 | 308 | 0.0 | 0.0 | 0.00 | 0.11 | 0.08 | 82 | 1014.9 |
| 20260502032042 | 37 | 308 | 0.0 | 0.0 | 0.00 | 0.11 | 0.08 | 82 | 1014.9 |
| 20260502031936 | 37 | 308 | 0.0 | 0.0 | 0.00 | 0.12 | 0.08 | 82 | 1014.9 |
| 20260502031609 | 37 | 308 | 0.0 | 0.0 | 0.00 | 0.12 | 0.08 | 82 | 1014.8 |
| 20260502031502 | 37 | 308 | 0.0 | 0.0 | 0.00 | 0.12 | 0.08 | 82 | 1014.9 |
| 20260502031358 | 37 | 308 | 0.0 | 0.0 | 0.00 | 0.13 | 0.08 | 82 | 1014.9 |
| 20260502031251 | 37 | 308 | 0.0 | 0.0 | 0.00 | 0.13 | 0.08 | 82 | 1014.9 |
| 20260502031148 | 37 | 308 | 0.0 | 0.0 | 0.00 | 0.13 | 0.08 | 82 | 1014.9 |
| 20260502031041 | 37 | 308 | 0.0 | 0.0 | 0.00 | 0.13 | 0.08 | 81 | 1014.9 |
| 20260502030935 | 37 | 308 | 0.0 | 0.0 | 0.00 | 0.13 | 0.08 | 81 | 1014.9 |
| 20260502030830 | 37 | 308 | 0.0 | 0.0 | 0.00 | 0.14 | 0.08 | 81 | 1014.9 |
| 20260502030722 | 37 | 308 | 0.0 | 0.0 | 0.00 | 0.14 | 0.08 | 81 | 1014.9 |
| 20260502030617 | 37 | 308 | 0.0 | 0.0 | 0.00 | 0.14 | 0.08 | 81 | 1014.8 |
| 20260502030511 | 37 | 308 | 0.0 | 0.0 | 0.00 | 0.14 | 0.08 | 81 | 1014.9 |
| 20260502030408 | 37 | 308 | 0.0 | 0.0 | 0.00 | 0.14 | 0.08 | 80 | 1014.9 |
| 20260502030305 | 37 | 308 | 0.0 | 0.0 | 0.00 | 0.14 | 0.08 | 80 | 1014.9 |
| 20260502030159 | 37 | 308 | 0.0 | 0.0 | 0.00 | 0.14 | 0.08 | 80 | 1014.9 |
| 20260502030052 | 37 | 308 | 0.0 | 0.0 | 0.00 | 0.15 | 0.08 | 80 | 1014.8 |
| 20260502025947 | 37 | 308 | 0.0 | 0.0 | 0.00 | 0.15 | 0.08 | 80 | 1014.8 |
| 20260502025846 | 37 | 308 | 0.0 | 0.0 | 0.00 | 0.15 | 0.08 | 79 | 1014.9 |
| 20260502025740 | 37 | 308 | 0.0 | 0.0 | 0.00 | 0.15 | 0.08 | 79 | 1014.9 |
| 20260502025635 | 37 | 308 | 0.0 | 0.0 | 0.00 | 0.15 | 0.08 | 79 | 1014.9 |
| 20260502025530 | 37 | 308 | 0.0 | 0.0 | 0.00 | 0.15 | 0.08 | 79 | 1014.8 |
| 20260502025204 | 38 | 308 | 0.0 | 0.0 | 0.00 | 0.15 | 0.08 | 78 | 1014.9 |
| 20260502025058 | 38 | 308 | 0.0 | 0.0 | 0.00 | 0.15 | 0.08 | 78 | 1014.9 |
| 20260502024951 | 38 | 308 | 0.0 | 0.0 | 0.00 | 0.15 | 0.08 | 78 | 1014.9 |
| 20260502024846 | 38 | 308 | 0.0 | 0.0 | 0.00 | 0.15 | 0.08 | 78 | 1014.8 |
| 20260502024738 | 38 | 308 | 0.0 | 0.0 | 0.00 | 0.15 | 0.08 | 78 | 1014.8 |
| 20260502024632 | 38 | 308 | 0.0 | 0.0 | 0.00 | 0.15 | 0.08 | 78 | 1014.8 |
| 20260502024526 | 38 | 308 | 0.0 | 0.0 | 0.00 | 0.15 | 0.08 | 78 | 1014.8 |
| 20260502024421 | 38 | 308 | 0.0 | 0.0 | 0.00 | 0.15 | 0.08 | 78 | 1014.8 |
| 20260502024317 | 38 | 308 | 0.0 | 0.0 | 0.00 | 0.15 | 0.08 | 78 | 1014.8 |
| 20260502024215 | 38 | 308 | 0.0 | 0.0 | 0.00 | 0.15 | 0.08 | 78 | 1014.9 |
| 20260502024112 | 38 | 308 | 0.0 | 0.0 | 0.00 | 0.15 | 0.08 | 77 | 1014.8 |
| 20260502024007 | 39 | 308 | 0.0 | 0.0 | 0.00 | 0.15 | 0.08 | 77 | 1014.8 |
| 20260502023905 | 39 | 308 | 0.0 | 0.0 | 0.00 | 0.15 | 0.08 | 77 | 1014.8 |
| 20260502023803 | 39 | 308 | 0.0 | 0.0 | 0.00 | 0.15 | 0.08 | 77 | 1014.9 |
| 20260502023434 | 39 | 308 | 0.0 | 0.0 | 0.00 | 0.15 | 0.08 | 76 | 1014.8 |
| 20260502023329 | 39 | 308 | 0.0 | 0.0 | 0.00 | 0.15 | 0.08 | 76 | 1014.8 |
| 20260502023222 | 39 | 308 | 0.0 | 0.0 | 0.00 | 0.15 | 0.08 | 76 | 1014.8 |
| 20260502023120 | 39 | 308 | 0.0 | 0.0 | 0.00 | 0.15 | 0.08 | 76 | 1014.8 |
| 20260502022536 | 39 | 308 | 0.0 | 0.0 | 0.00 | 0.15 | 0.08 | 76 | 1014.8 |
| 20260502022429 | 39 | 308 | 0.0 | 0.0 | 0.00 | 0.15 | 0.08 | 76 | 1014.8 |
| 20260502022322 | 39 | 308 | 0.0 | 0.0 | 0.00 | 0.15 | 0.08 | 75 | 1014.8 |
| 20260502022215 | 39 | 308 | 0.0 | 0.0 | 0.00 | 0.15 | 0.08 | 75 | 1014.8 |
| 20260502022111 | 39 | 308 | 0.0 | 0.0 | 0.00 | 0.15 | 0.08 | 75 | 1014.8 |
| 20260502022004 | 39 | 308 | 0.0 | 0.0 | 0.00 | 0.15 | 0.08 | 75 | 1014.8 |
| 20260502021858 | 39 | 308 | 0.0 | 0.0 | 0.00 | 0.15 | 0.08 | 75 | 1014.8 |
| 20260502021536 | 39 | 308 | 0.0 | 1.7 | 0.00 | 0.15 | 0.08 | 75 | 1014.8 |
| 20260502021211 | 39 | 337 | 0.0 | 0.0 | 0.00 | 0.15 | 0.08 | 76 | 1014.8 |
| 20260502021109 | 39 | 338 | 0.0 | 0.0 | 0.00 | 0.15 | 0.08 | 76 | 1014.7 |
| 20260502021007 | 40 | 338 | 0.0 | 0.0 | 0.00 | 0.15 | 0.08 | 76 | 1014.7 |
| 20260502020904 | 40 | 338 | 0.0 | 0.0 | 0.00 | 0.15 | 0.08 | 76 | 1014.7 |
| 20260502020759 | 40 | 338 | 0.0 | 0.0 | 0.00 | 0.15 | 0.08 | 76 | 1014.6 |
| 20260502020656 | 40 | 338 | 0.0 | 0.0 | 0.00 | 0.15 | 0.08 | 76 | 1014.7 |
| 20260502020552 | 40 | 338 | 0.0 | 0.0 | 0.00 | 0.15 | 0.08 | 76 | 1014.6 |
| 20260502020447 | 40 | 338 | 0.0 | 0.0 | 0.00 | 0.15 | 0.08 | 76 | 1014.6 |
| 20260502020340 | 40 | 338 | 0.0 | 0.0 | 0.00 | 0.15 | 0.08 | 76 | 1014.6 |
| 20260502020238 | 40 | 338 | 0.0 | 0.0 | 0.00 | 0.15 | 0.08 | 76 | 1014.6 |
| 20260502020134 | 40 | 338 | 0.0 | 0.0 | 0.00 | 0.15 | 0.08 | 75 | 1014.6 |
| 20260502020030 | 40 | 338 | 0.0 | 0.0 | 0.00 | 0.15 | 0.08 | 75 | 1014.6 |
| 20260502015924 | 41 | 338 | 0.0 | 0.0 | 0.00 | 0.15 | 0.08 | 74 | 1014.5 |
| 20260502015820 | 41 | 338 | 0.0 | 0.0 | 0.00 | 0.15 | 0.08 | 74 | 1014.5 |
| 20260502015716 | 41 | 338 | 0.0 | 0.0 | 0.00 | 0.15 | 0.08 | 74 | 1014.6 |
| 20260502015612 | 41 | 338 | 0.0 | 0.0 | 0.00 | 0.15 | 0.08 | 74 | 1014.5 |
| 20260502015505 | 41 | 338 | 0.0 | 0.0 | 0.00 | 0.15 | 0.08 | 74 | 1014.4 |
| 20260502015400 | 41 | 338 | 0.0 | 0.0 | 0.00 | 0.15 | 0.08 | 73 | 1014.5 |
| 20260502015254 | 41 | 338 | 0.0 | 0.0 | 0.00 | 0.15 | 0.08 | 73 | 1014.4 |
| 20260502015152 | 41 | 338 | 0.0 | 0.0 | 0.00 | 0.15 | 0.08 | 73 | 1014.5 |
| 20260502015045 | 41 | 338 | 0.0 | 0.0 | 0.00 | 0.15 | 0.08 | 73 | 1014.4 |
| 20260502014940 | 41 | 338 | 0.0 | 0.0 | 0.00 | 0.15 | 0.08 | 72 | 1014.4 |
| 20260502014834 | 41 | 338 | 0.0 | 0.0 | 0.00 | 0.15 | 0.08 | 72 | 1014.4 |
| 20260502014730 | 41 | 338 | 0.0 | 0.0 | 0.00 | 0.15 | 0.08 | 72 | 1014.3 |
| 20260502014407 | 42 | 338 | 0.0 | 0.0 | 0.00 | 0.15 | 0.08 | 71 | 1014.3 |
| 20260502014302 | 42 | 338 | 0.0 | 0.0 | 0.00 | 0.15 | 0.08 | 71 | 1014.3 |
| 20260502014159 | 42 | 338 | 0.0 | 0.0 | 0.00 | 0.15 | 0.08 | 70 | 1014.3 |
| 20260502014055 | 42 | 338 | 0.0 | 0.0 | 0.00 | 0.15 | 0.08 | 70 | 1014.3 |
| 20260502013948 | 42 | 338 | 0.0 | 0.0 | 0.00 | 0.15 | 0.08 | 70 | 1014.2 |
| 20260502013627 | 42 | 338 | 0.0 | 0.0 | 0.00 | 0.15 | 0.08 | 70 | 1014.2 |
| 20260502013524 | 42 | 338 | 0.0 | 0.0 | 0.00 | 0.15 | 0.08 | 70 | 1014.2 |
| 20260502013422 | 42 | 338 | 0.0 | 0.0 | 0.00 | 0.15 | 0.08 | 70 | 1014.2 |
| 20260502013055 | 42 | 338 | 0.0 | 0.0 | 0.00 | 0.15 | 0.08 | 70 | 1014.2 |
| 20260502012506 | 43 | 344 | 0.0 | 0.0 | 0.00 | 0.15 | 0.08 | 70 | 1014.1 |
| 20260502012402 | 43 | 344 | 0.0 | 0.0 | 0.00 | 0.15 | 0.08 | 70 | 1014.1 |
| 20260502012259 | 43 | 344 | 0.0 | 0.9 | 0.00 | 0.15 | 0.08 | 70 | 1014.1 |
| 20260502012151 | 43 | 344 | 0.0 | 0.9 | 0.00 | 0.15 | 0.08 | 70 | 1014.1 |
| 20260502012047 | 43 | 344 | 0.0 | 0.9 | 0.00 | 0.15 | 0.08 | 70 | 1014.2 |
| 20260502011942 | 43 | 344 | 0.0 | 0.9 | 0.00 | 0.15 | 0.08 | 70 | 1014.2 |
| 20260502011614 | 43 | 344 | 0.9 | 0.0 | 0.00 | 0.15 | 0.08 | 70 | 1014.2 |
| 20260502011511 | 43 | 344 | 0.9 | 4.3 | 0.00 | 0.15 | 0.08 | 70 | 1014.1 |
| 20260502011408 | 43 | 344 | 0.9 | 4.3 | 0.00 | 0.15 | 0.08 | 70 | 1014.2 |
| 20260502011304 | 43 | 344 | 0.0 | 4.3 | 0.00 | 0.15 | 0.08 | 69 | 1014.2 |
| 20260502010937 | 43 | 338 | 0.0 | 4.3 | 0.00 | 0.15 | 0.08 | 70 | 1014.2 |
| 20260502010834 | 43 | 333 | 0.0 | 4.3 | 0.00 | 0.15 | 0.08 | 71 | 1014.2 |
| 20260502010725 | 43 | 344 | 0.0 | 4.3 | 0.00 | 0.15 | 0.08 | 71 | 1014.2 |
| 20260502010621 | 43 | 349 | 0.0 | 4.3 | 0.00 | 0.15 | 0.08 | 71 | 1014.2 |
| 20260502010517 | 43 | 300 | 0.0 | 0.0 | 0.00 | 0.15 | 0.08 | 70 | 1014.2 |
| 20260502010414 | 43 | 300 | 0.0 | 0.0 | 0.00 | 0.15 | 0.08 | 70 | 1014.1 |
| 20260502010311 | 43 | 302 | 0.0 | 0.0 | 0.00 | 0.15 | 0.08 | 70 | 1014.2 |
| 20260502010206 | 43 | 303 | 0.0 | 0.0 | 0.00 | 0.15 | 0.08 | 70 | 1014.1 |
| 20260502005842 | 43 | 306 | 0.0 | 0.0 | 0.00 | 0.15 | 0.08 | 70 | 1014.1 |
| 20260502005738 | 43 | 306 | 0.0 | 0.0 | 0.00 | 0.15 | 0.08 | 70 | 1014.0 |
| 20260502005416 | 43 | 306 | 0.0 | 0.0 | 0.00 | 0.15 | 0.08 | 70 | 1014.0 |
| 20260502005310 | 43 | 306 | 0.0 | 0.0 | 0.00 | 0.15 | 0.08 | 70 | 1014.0 |
| 20260502005208 | 43 | 306 | 0.0 | 0.0 | 0.00 | 0.15 | 0.08 | 70 | 1014.0 |
| 20260502005102 | 43 | 306 | 0.0 | 0.0 | 0.00 | 0.15 | 0.08 | 70 | 1014.0 |
| 20260502005000 | 43 | 306 | 0.0 | 0.0 | 0.00 | 0.15 | 0.08 | 70 | 1014.0 |
| 20260502004856 | 43 | 306 | 0.0 | 0.0 | 0.00 | 0.15 | 0.08 | 70 | 1014.0 |
| 20260502004754 | 43 | 306 | 0.0 | 0.0 | 0.00 | 0.15 | 0.08 | 69 | 1014.0 |
| 20260502004650 | 43 | 306 | 0.0 | 0.0 | 0.00 | 0.15 | 0.08 | 69 | 1013.9 |
| 20260502004546 | 43 | 305 | 0.0 | 0.0 | 0.00 | 0.15 | 0.08 | 69 | 1014.0 |
| 20260502004439 | 43 | 304 | 0.0 | 0.0 | 0.00 | 0.15 | 0.08 | 70 | 1013.9 |
| 20260502004332 | 43 | 304 | 0.0 | 0.9 | 0.00 | 0.15 | 0.08 | 70 | 1014.0 |
| 20260502004224 | 43 | 304 | 0.0 | 0.9 | 0.00 | 0.15 | 0.08 | 70 | 1013.9 |
| 20260502004117 | 43 | 304 | 0.0 | 0.0 | 0.00 | 0.15 | 0.08 | 69 | 1014.0 |
| 20260502004011 | 43 | 304 | 0.0 | 0.0 | 0.00 | 0.15 | 0.08 | 69 | 1014.0 |
| 20260502003650 | 43 | 293 | 0.0 | 0.0 | 0.00 | 0.15 | 0.08 | 69 | 1014.0 |
| 20260502003543 | 43 | 284 | 0.0 | 0.0 | 0.00 | 0.15 | 0.08 | 69 | 1013.9 |
| 20260502003440 | 43 | 284 | 0.0 | 0.0 | 0.00 | 0.15 | 0.08 | 69 | 1014.0 |
| 20260502003337 | 43 | 284 | 0.0 | 0.0 | 0.00 | 0.15 | 0.08 | 69 | 1014.0 |
| 20260502003234 | 43 | 284 | 0.0 | 0.0 | 0.00 | 0.15 | 0.08 | 69 | 1013.9 |
| 20260502003126 | 43 | 284 | 0.0 | 0.9 | 0.00 | 0.15 | 0.08 | 69 | 1013.9 |
| 20260502003023 | 43 | 284 | 0.0 | 0.9 | 0.00 | 0.15 | 0.08 | 69 | 1013.9 |
| 20260502002917 | 43 | 284 | 0.0 | 2.6 | 0.00 | 0.15 | 0.08 | 68 | 1014.0 |
| 20260502002814 | 43 | 284 | 0.0 | 2.6 | 0.00 | 0.15 | 0.08 | 69 | 1013.9 |
| 20260502002706 | 43 | 306 | 0.0 | 0.0 | 0.00 | 0.15 | 0.08 | 69 | 1013.9 |
| 20260502002601 | 44 | 306 | 0.0 | 3.5 | 0.00 | 0.15 | 0.08 | 69 | 1013.9 |
| 20260502002456 | 44 | 306 | 0.0 | 3.5 | 0.00 | 0.15 | 0.08 | 68 | 1013.9 |
| 20260502002353 | 44 | 300 | 0.0 | 3.5 | 0.00 | 0.15 | 0.08 | 68 | 1013.9 |
| 20260502001808 | 44 | 320 | 0.0 | 0.9 | 0.00 | 0.15 | 0.08 | 69 | 1013.8 |
| 20260502001700 | 44 | 319 | 0.0 | 2.6 | 0.00 | 0.15 | 0.08 | 69 | 1013.8 |
| 20260502001115 | 44 | 336 | 0.0 | 2.6 | 0.00 | 0.15 | 0.08 | 69 | 1013.8 |
| 20260502001013 | 44 | 338 | 0.0 | 2.6 | 0.00 | 0.15 | 0.08 | 69 | 1013.8 |
| 20260502000651 | 44 | 344 | 0.0 | 0.0 | 0.00 | 0.15 | 0.08 | 69 | 1013.8 |
| 20260502000547 | 44 | 344 | 0.9 | 0.0 | 0.00 | 0.15 | 0.08 | 69 | 1013.8 |
| 20260502000446 | 44 | 0 | 0.9 | 0.0 | 0.00 | 0.15 | 0.08 | 69 | 1013.8 |
| 20260502000339 | 44 | 344 | 0.9 | 5.2 | 0.00 | 0.15 | 0.08 | 69 | 1013.7 |
| 20260502000233 | 44 | 344 | 0.9 | 5.2 | 0.00 | 0.15 | 0.08 | 69 | 1013.8 |
| 20260501235904 | 44 | 346 | 1.7 | 5.2 | 0.00 | 0.15 | 0.08 | 68 | 1013.7 |
| 20260501235802 | 44 | 325 | 0.9 | 5.2 | 0.00 | 0.15 | 0.08 | 69 | 1013.7 |
| 20260501235656 | 44 | 349 | 0.9 | 5.2 | 0.00 | 0.15 | 0.08 | 69 | 1013.7 |
| 20260501235552 | 44 | 331 | 0.9 | 5.2 | 0.00 | 0.15 | 0.08 | 69 | 1013.6 |
| 20260501235447 | 44 | 290 | 0.0 | 5.2 | 0.00 | 0.15 | 0.08 | 70 | 1013.6 |
| 20260501235343 | 44 | 284 | 0.0 | 5.2 | 0.00 | 0.15 | 0.08 | 70 | 1013.6 |
| 20260501235240 | 44 | 272 | 0.0 | 5.2 | 0.00 | 0.15 | 0.08 | 70 | 1013.6 |
| 20260501235132 | 44 | 307 | 0.0 | 5.2 | 0.00 | 0.15 | 0.08 | 70 | 1013.6 |
| 20260501235027 | 44 | 338 | 0.0 | 5.2 | 0.00 | 0.15 | 0.08 | 70 | 1013.6 |
| 20260501234925 | 44 | 323 | 0.0 | 5.2 | 0.00 | 0.15 | 0.08 | 70 | 1013.6 |
| 20260501234820 | 44 | 288 | 0.0 | 2.6 | 0.00 | 0.15 | 0.08 | 71 | 1013.6 |
| 20260501234713 | 44 | 280 | 0.0 | 0.0 | 0.00 | 0.15 | 0.08 | 71 | 1013.6 |
| 20260501234611 | 44 | 284 | 0.0 | 0.0 | 0.00 | 0.15 | 0.08 | 70 | 1013.6 |
| 20260501234243 | 44 | 284 | 1.7 | 7.0 | 0.00 | 0.15 | 0.08 | 70 | 1013.5 |
| 20260501234140 | 44 | 284 | 1.7 | 7.0 | 0.00 | 0.15 | 0.08 | 69 | 1013.6 |
| 20260501234036 | 44 | 284 | 1.7 | 7.0 | 0.00 | 0.15 | 0.08 | 69 | 1013.6 |
| 20260501233934 | 44 | 281 | 1.7 | 7.0 | 0.00 | 0.15 | 0.08 | 69 | 1013.6 |
| 20260501233829 | 44 | 284 | 1.7 | 7.0 | 0.00 | 0.15 | 0.08 | 69 | 1013.6 |
| 20260501233722 | 44 | 284 | 2.6 | 7.0 | 0.00 | 0.15 | 0.08 | 69 | 1013.6 |
| 20260501233614 | 44 | 281 | 2.6 | 7.8 | 0.00 | 0.15 | 0.08 | 69 | 1013.5 |
| 20260501233512 | 44 | 294 | 2.6 | 7.8 | 0.00 | 0.15 | 0.08 | 69 | 1013.5 |
| 20260501233407 | 44 | 272 | 2.6 | 7.8 | 0.00 | 0.15 | 0.08 | 68 | 1013.5 |
| 20260501233301 | 44 | 309 | 2.6 | 7.8 | 0.00 | 0.15 | 0.08 | 69 | 1013.5 |
| 20260501233155 | 44 | 268 | 2.6 | 7.8 | 0.00 | 0.15 | 0.08 | 69 | 1013.5 |
| 20260501233048 | 44 | 283 | 2.6 | 7.8 | 0.00 | 0.15 | 0.08 | 68 | 1013.4 |
| 20260501232944 | 44 | 276 | 3.5 | 7.8 | 0.00 | 0.15 | 0.08 | 68 | 1013.5 |
| 20260501232837 | 44 | 306 | 3.5 | 7.8 | 0.00 | 0.15 | 0.08 | 68 | 1013.5 |
| 20260501232735 | 44 | 269 | 3.5 | 7.8 | 0.00 | 0.15 | 0.08 | 68 | 1013.5 |
| 20260501232408 | 44 | 299 | 2.6 | 7.8 | 0.00 | 0.15 | 0.08 | 69 | 1013.4 |
| 20260501232305 | 44 | 279 | 2.6 | 7.8 | 0.00 | 0.15 | 0.08 | 69 | 1013.4 |
| 20260501232157 | 44 | 288 | 2.6 | 7.8 | 0.00 | 0.15 | 0.08 | 69 | 1013.4 |
| 20260501232053 | 44 | 309 | 1.7 | 7.8 | 0.00 | 0.15 | 0.08 | 69 | 1013.4 |
| 20260501231946 | 44 | 290 | 1.7 | 7.8 | 0.00 | 0.15 | 0.08 | 69 | 1013.4 |
| 20260501231843 | 44 | 277 | 1.7 | 7.8 | 0.00 | 0.15 | 0.08 | 69 | 1013.4 |
| 20260501231739 | 44 | 278 | 1.7 | 7.8 | 0.00 | 0.15 | 0.08 | 70 | 1013.4 |
| 20260501231632 | 44 | 296 | 0.9 | 4.3 | 0.00 | 0.15 | 0.08 | 70 | 1013.4 |
| 20260501231530 | 44 | 308 | 0.9 | 4.3 | 0.00 | 0.15 | 0.08 | 70 | 1013.4 |
| 20260501231427 | 44 | 299 | 0.9 | 4.3 | 0.00 | 0.15 | 0.08 | 70 | 1013.3 |
| 20260501231321 | 44 | 282 | 0.9 | 3.5 | 0.00 | 0.15 | 0.08 | 70 | 1013.4 |
| 20260501231218 | 44 | 286 | 1.7 | 2.6 | 0.00 | 0.15 | 0.08 | 70 | 1013.4 |